Girls - Novice Red/White

2018	Woodbridge Cross Country Classic
Meet results can be found on the internet at www.gvarvas.com/results
Individual Race Results - Race	2	5:20pm Div. Red/White Novice Women (3Mi)
Girls 3 Mile Run
pl		name	yr		team	time	pace
1	15110	Delgadillo, Alexia	12	Anza	Hamilton (SS)	20:56.2	6:59
2	3716	Bretz, Charlotte	12	Ventura	Buena (Vent)	21:56.2	7:19
3	6186	Smulovitz, Nicola	11	Santa Monica	Santa Monica	22:33.2	7:31
4	16254	Hernandez, Natalie	11	Santa Ana	Samueli Acad	22:34.7	7:31
5	5191	Guerre, Corrine	11	Huntington Beach	Marina	22:39.4	7:33
6	15634	Logan, Reiley	10	Calimesa	MesaGrndeAcad	22:46.0	7:35
7	15632	Bennie, Brielle	10	Calimesa	MesaGrndeAcad	22:47.2	7:36
8	14526	Wallace-palomar, Aisha	12	Escondido	Del Lago Acad	23:09.3	7:43
9	14646	Angie, Ramirez	9	Chino	Don Lugo	23:24.4	7:48
10	3736	Kruseman, Casie	12	Ventura	Buena (Vent)	23:38.5	7:53
11	5651	Jimenez, Lizeth	12	Riverside	Patriot	23:38.7	7:53
12	14651	Lara, Yasmine	10	Chino	Don Lugo	23:45.3	7:55
13	5995	Galaviz, Jaslyn	12	San Jacinto	San Jacinto	23:45.7	7:55
14	6357	Quinonez, Camila	11	Santa Ana	Segerstrom	23:52.5	7:57
15	14160	Meeks, Ishani	11	Las Vegas	Bishop Gorman	23:55.4	7:58
16	16507	Perea, Diana	9	South Pasadena	SouthPasadena	24:00.2	8:00
17	14716	Farrell, Dylan	12	Sacramento	El Camino Sac	24:01.0	8:00
18	15668	Kenyon, Keylie	10	Irvine	Northwood	24:02.3	8:01
19	17010	Gopinath, Kira	11	Los Angeles	Windward	24:04.5	8:01
20	16066	Toscano, Anastasia	11	Riverbank	Riverbank	24:08.4	8:03
21	15681	Olivares, Chelsea	10	Irvine	Northwood	24:14.2	8:05
22	5862	Wenger-johnson, Makenna10	Sacramento	Rio Americano	24:17.0	8:06
23	14648	Figueroa, Rebecca	10	Chino	Don Lugo	24:19.5	8:06
24	4163	Morales, Melanie	12	Las Vegas	Durango (NV)	24:33.7	8:11
25	4262	Garcia, Iris	10	Orange	El Modena	24:36.9	8:12
26	14278	Navarro, Cynthia	9	Santa Ana	CalvryChapSA	24:37.7	8:12
27	3947	Fernandez, Ocean	11	Las Vegas	Clark (NV)	24:38.2	8:13
28	3748	Rodriguez, Yanelli	12	Ventura	Buena (Vent)	24:39.0	8:13
29	14159	Martinez, Maya	12	Las Vegas	Bishop Gorman	24:39.7	8:13
30	6160	Gettinger, Jianjia	12	Santa Monica	Santa Monica	24:40.4	8:13
31	14154	Gillett, Sara	11	Las Vegas	Bishop Gorman	24:41.2	8:14
32	15638	Whitlock, Kira	11	Calimesa	MesaGrndeAcad	24:47.5	8:16
33	4278	Romero, Yoali	10	Orange	El Modena	24:50.3	8:17
34	15114	Sanchez, Ashley	11	Anza	Hamilton (SS)	24:51.4	8:17
35	6161	Goren, Maya	12	Santa Monica	Santa Monica	24:53.0	8:18
36	15840	Gomez, Nataly	10	Ontario	Ontario	24:53.2	8:18
37	14714	Corral, Maya	10	Sacramento	El Camino Sac	24:53.4	8:18
38	6158	Garcia, Leslie	10	Santa Monica	Santa Monica	24:56.6	8:19
39	14156	Johnson, Hannah	11	Las Vegas	Bishop Gorman	24:58.2	8:19
40	4264	Houl, Audrey	11	Orange	El Modena	24:58.9	8:19
41	6505	Claudia, Rodrigues	11	Bakersfield	S Bakersfield	25:02.9	8:21
42	5772	Corzo, Areli	11	Redlands	Redland E Vly	25:03.3	8:21
43	4422	Sober, Aylina	9	Wildomar	Elsinore	25:03.5	8:21
44	6185	Smolentseva, Anna	11	Santa Monica	Santa Monica	25:04.3	8:21
45	6290	Morales, Lucia	11	Garden Grove	Santiago-GG	25:04.9	8:21
46	16383	Hernandez, Katrina	10	San Dimas	San Dimas	25:08.7	8:23
47	16811	Medina, Jenny	11	Santa Ana	USC Coll Prep	25:12.2	8:24
48	16482	Miller, Lydnsay	9	Chatsworth	Sierra Canyon	25:15.2	8:25
49	4585	Sohani, Mahsa	12	Glendale	Glendale	25:16.7	8:25
50	15965	Gutierrez, Giselle	11	Irvine	Portola	25:17.5	8:26
51	3604	Welton, Ryan	10	M Irvine	Woodbridge	25:17.6	8:26
52	14280	Sutherland, Lily	10	Santa Ana	CalvryChapSA	25:19.3	8:26
53	16248	Garcia, Maritza	11	Santa Ana	Samueli Acad	25:19.5	8:26
54	15645	Millan, Mia	10	Monrovia	Monrovia	25:26.9	8:29
55	6483	Pinedo-serrato, Juliette	11	La Habra	Sonora (SS)	25:27.0	8:29
56	6297	Pham, Mary	11	Garden Grove	Santiago-GG	25:36.4	8:32
57	4720	Rutkowski, Isabelle	10	Henderson	GreenValleyNV	25:38.0	8:33
58	14647	Cruz, Ashley	11	Chino	Don Lugo	25:39.5	8:33
59	14828	Millon, Hope	10	Costa Mesa	Estancia	25:42.7	8:34
60	4711	Cornwell, Kayla	12	Henderson	GreenValleyNV	25:43.7	8:34
61	14822	Araujo, Rebecah	10	Costa Mesa	Estancia	25:45.2	8:35
62	16500	Kang, Ye Young (sa	9	South Pasadena	SouthPasadena	25:47.9	8:36
63	16067	Wood, Ainsley	9	Riverbank	Riverbank	25:49.7	8:36
64	6333	Castaneda, Tiffany	9	Santa Ana	Segerstrom	25:50.5	8:37
65	14168	Sharp, Lauren	9	Las Vegas	Bishop Gorman	25:52.9	8:37
66	14235	Hernandez, Alondra	11	Buena Park	Buena Park	25:53.6	8:38
67	16059	Ayala, Jocelyn	9	Riverbank	Riverbank	25:54.9	8:38
68	14657	Torres, Ayleen	12	Chino	Don Lugo	25:56.8	8:39
69	17009	Fikre, Serafina	11	Los Angeles	Windward	26:02.3	8:41
70	16990	Nutting, Tori	9	Pasadena	Westridge	26:02.9	8:41
71	14171	Vansuch, Isabelle	10	Las Vegas	Bishop Gorman	26:03.4	8:41
72	4539	Jones-lord, Rachel	11	Yuma	Gila Ridge AZ	26:06.2	8:42
73	3635	Valdivia, Paula	10	San Bernardino	Arroyo Valley	26:09.8	8:43
74	4972	Sifuentes, Veronica	9	Anaheim	Katella	26:10.6	8:43
75	15842	Gonzalez, Jolene	12	Ontario	Ontario	26:11.0	8:44
76	6552	Ruiz, Aryanna	10	Torrance	SouthTorrance	26:11.6	8:44
77	15853	Ontiveros, Roselyn	11	Ontario	Ontario	26:12.0	8:44
78	16910	Cervantes, Diana	10	Anaheim	Western	26:12.2	8:44
79	6167	Kramarsky, Olivia	10	Santa Monica	Santa Monica	26:12.7	8:44
80	5649	Chavez, Jessica	12	Riverside	Patriot	26:13.6	8:44
81	4541	Lashawn, Mi Leana	11	Yuma	Gila Ridge AZ	26:14.7	8:45
82	4157	Caine, Hailey	12	Las Vegas	Durango (NV)	26:16.6	8:45
83	14167	Schumacher, Samantha	11	Las Vegas	Bishop Gorman	26:20.0	8:47
84	5070	Loaiza, Viola	11	La Mirada	La Mirada	26:21.4	8:47
85	4951	Aguilar, Jenny	12	Anaheim	Katella	26:22.2	8:47
86	6347	Hernandez, Adamari	9	Santa Ana	Segerstrom	26:22.6	8:47
87	16373	Bernhard, Emily	9	San Dimas	San Dimas	26:24.4	8:48
88	5111	Hoang, Julie	10	Westminster	La Quinta Wst	26:25.2	8:48
89	7019	Sanchez, Daniela	9	Tustin	Tustin	26:27.8	8:49
90	4509	Torres, Hannah	9	Fullerton	Fullerton Un	26:28.7	8:49
91	14277	Craig, Grace	11	Santa Ana	CalvryChapSA	26:28.7	8:49
92	7011	Melara, Cindy	10	Tustin	Tustin	26:29.2	8:50
93	14691	Oregel, Natalie	10	West Covina	Edgewood	26:29.7	8:50
94	5271	Shteynberg, Michelle	10	Los Angeles	Marshall	26:30.3	8:50
95	5036	Tejas, Isabella	10	La Habra	La Habra	26:32.2	8:51
96	5123	Tran, Kelly	9	Westminster	La Quinta Wst	26:32.3	8:51
97	15643	Crouse, Emily	11	Monrovia	Monrovia	26:35.7	8:52
98	15111	Gomez, Angelica	11	Anza	Hamilton (SS)	26:36.8	8:52
99	16625	Sampagnaro, Isabella	11	Glendora	St Lucy Prior	26:36.9	8:52
100	4530	Anguiano Quinta, Isabella9	Yuma	Gila Ridge AZ	26:38.8	8:53
101	6189	Warren, Gwen	9	Santa Monica	Santa Monica	26:39.7	8:53
102	3626	Ochoa, Virginia	10	San Bernardino	Arroyo Valley	26:41.2	8:54
103	15975	Ngo, Luca	9	Irvine	Portola	26:41.4	8:54
104	16623	Radden, Jalessa	9	Glendora	St Lucy Prior	26:42.2	8:54
105	16771	Mcdonnell, Marmae	11	Twentynine Palms	TwentyninePal	26:42.6	8:54
106	4505	Pavalek, Natasha	9	Fullerton	Fullerton Un	26:47.2	8:56
107	17109	Youngman, Cadence	9	Yucca Valley	Yucca Valley	26:49.2	8:56
108	16950	Palacios, Emily	10	Westminster	Westminster	26:52.2	8:57
109	3952	Martinez, Adel	9	Las Vegas	Clark (NV)	26:53.2	8:58
110	6367	Ugalde, Monserrath	11	Santa Ana	Segerstrom	26:53.4	8:58
111	6178	Rappoport, Aneesa	11	Santa Monica	Santa Monica	26:54.4	8:58
112	16988	Kleindorfer, Clara	9	Pasadena	Westridge	27:00.5	9:00
113	4260	Ferraro, Evan	10	Orange	El Modena	27:03.9	9:01
114	14821	Alcala, Samantha	10	Costa Mesa	Estancia	27:03.9	9:01
115	5680	Alvarado, Stephanie	11	Perris	Perris	27:09.8	9:03
116	7295	Starr, Savannah	11	Torrance	West Torrance	27:11.3	9:04
117	5731	Cortez, Ruby	11	Riverside	Ramona	27:13.4	9:04
118	4543	Macaluso, Madelina	9	Yuma	Gila Ridge AZ	27:13.7	9:04
119	15056	Alvarado, Jenna	10	Apple Valley	Granite Hills	27:14.3	9:05
120	15590	Brady, Nirvana	9	Malibu	Malibu	27:14.7	9:05
121	6428	Gutierrez, Val	9	Indio	Shadow Hills	27:17.9	9:06
122	16772	Ogle, Courtney	12	Twentynine Palms	TwentyninePal	27:20.2	9:07
123	6184	Rothblatt, Dasha	10	Santa Monica	Santa Monica	27:21.2	9:07
124	4168	Ta, Mandy	10	Las Vegas	Durango (NV)	27:21.4	9:07
125	4269	Madrid, Melani	11	Orange	El Modena	27:21.8	9:07
126	6174	Navin, Kylee	10	Santa Monica	Santa Monica	27:22.2	9:07
127	6506	Esther, Sanchez	11	Bakersfield	S Bakersfield	27:22.5	9:07
128	16064	Raya, Daniela	9	Riverbank	Riverbank	27:22.8	9:07
129	16060	Cruz, Marissa	9	Riverbank	Riverbank	27:23.9	9:08
130	5527	Ibanez, Cinthia	10	Orange	Orange	27:24.6	9:08
131	5683	Barragan, Eleni	11	Perris	Perris	27:25.2	9:08
132	5843	Bracchi, Ella	10	Sacramento	Rio Americano	27:26.4	9:09
133	5028	Brown, Maya	12	La Habra	La Habra	27:26.9	9:09
134	15637	Shakespeare, Katie	10	Calimesa	MesaGrndeAcad	27:27.3	9:09
135	3613	Cruz, Lizbeth	11	San Bernardino	Arroyo Valley	27:27.9	9:09
136	4166	Rodriguez, Miranda	10	Las Vegas	Durango (NV)	27:28.4	9:09
137	4883	Neddersen, Sarah	9	Irvine	Irvine	27:28.4	9:09
138	4258	Dommes, Saghen	10	Orange	El Modena	27:28.4	9:09
139	4544	Mclain, Marisa	9	Yuma	Gila Ridge AZ	27:28.9	9:09
140	6368	Vilchis, Diana	9	Santa Ana	Segerstrom	27:29.3	9:10
141	14569	Manubay, Brianne	9	Pomona	Diamond Ranch	27:29.5	9:10
142	4952	Conde, Melina	10	Anaheim	Katella	27:35.8	9:12
143	16987	Hu, Edna	9	Pasadena	Westridge	27:36.2	9:12
144	4960	Juarez, Estefania	9	Anaheim	Katella	27:36.6	9:12
145	4890	Wallace, Tessa	9	Irvine	Irvine	27:38.8	9:13
146	4274	Monrroy, Anna	10	Orange	El Modena	27:40.9	9:13
147	14654	Peery, Layla	9	Chino	Don Lugo	27:41.4	9:14
148	6332	Barajas, Clarisa	9	Santa Ana	Segerstrom	27:42.7	9:14
149	6339	Flores, Jocelyn	9	Santa Ana	Segerstrom	27:43.7	9:14
150	15673	Lee, Yunseo	9	Irvine	Northwood	27:45.7	9:15
151	5263	Mejia, Anais	11	Los Angeles	Marshall	27:45.9	9:15
152	5026	Alvarez, Julianna	12	La Habra	La Habra	27:46.9	9:15
153	5684	Cabada, Scarlett	11	Perris	Perris	27:47.5	9:16
154	16178	Uriustegui, Anayeli	10	Santa Ana	Saddleback	27:47.8	9:16
155	16063	Ortega, Nallely	12	Riverbank	Riverbank	27:47.9	9:16
156	4547	Vazquez, Kareli	11	Yuma	Gila Ridge AZ	27:51.0	9:17
157	4957	Henriquez, Andrea	12	Anaheim	Katella	27:51.0	9:17
158	3954	Tapia, Natasha	11	Las Vegas	Clark (NV)	27:53.2	9:18
159	5685	Campos, Jassmine	12	Perris	Perris	27:56.0	9:19
160	6902	Quiles, Karen	9	Torrance	Torrance	27:57.2	9:19
161	17039	Whitehouse, Ella	11	Riverside	WoodcrestChrs	28:00.6	9:20
162	14421	Vasquez, Tabitha	11	Colton	Colton	28:02.3	9:21
163	16810	Martinez, Deisy	11	Santa Ana	USC Coll Prep	28:02.3	9:21
164	14418	Marcial, Gabriella	12	Colton	Colton	28:02.9	9:21
165	15851	Murillo, Karla	10	Ontario	Ontario	28:02.9	9:21
166	15270	Sanchez, Frida	10	Fontana	Kaiser	28:02.9	9:21
167	14165	Sabal, Tabitha	10	Las Vegas	Bishop Gorman	28:04.0	9:21
168	5773	Corzo, Salma	10	Redlands	Redland E Vly	28:04.6	9:21
169	14650	Hernandez, Arianna	9	Chino	Don Lugo	28:05.6	9:22
170	5993	Bishton, Suizanne	11	San Jacinto	San Jacinto	28:06.4	9:22
171	3943	Castro, Esmeralda	11	Las Vegas	Clark (NV)	28:08.2	9:23
172	7017	Rubio, Corina	9	Tustin	Tustin	28:09.8	9:23
173	6156	Flanagan, Kali	9	Santa Monica	Santa Monica	28:10.8	9:23
174	3944	Castro, Melissa	11	Las Vegas	Clark (NV)	28:13.4	9:24
175	4276	Plettinck, Ashton	10	Orange	El Modena	28:14.2	9:25
176	6555	Takaoka, Tea	11	Torrance	SouthTorrance	28:17.5	9:26
177	6341	Gomez, April	9	Santa Ana	Segerstrom	28:17.7	9:26
178	5125	Vergara, Brenda	9	Westminster	La Quinta Wst	28:24.0	9:28
179	6438	Santacruz, Dajsa	10	Indio	Shadow Hills	28:25.7	9:28
180	15256	Alegre, Lizbeth	11	Fontana	Kaiser	28:25.9	9:28
181	14323	Brentnall, Bryn	11	San Diego	Clairemont-SD	28:27.2	9:29
182	6525	Arevalo, Nathalie	9	Torrance	SouthTorrance	28:29.5	9:30
183	15025	Clark, Marin	10	Peoria	GlendalePrpAZ	28:29.9	9:30
184	4250	Acevedo, Michelle	10	Orange	El Modena	28:30.7	9:30
185	16375	Butler, Hannah	10	San Dimas	San Dimas	28:32.2	9:31
186	6875	Delrea, Kirsten	9	Torrance	Torrance	28:33.3	9:31
187	6434	Ramirez, Jade	11	Indio	Shadow Hills	28:34.6	9:31
188	3627	Oseguera, Jazmin	11	San Bernardino	Arroyo Valley	28:35.2	9:32
189	4508	Tangunan, Sarah	11	Fullerton	Fullerton Un	28:35.6	9:32
190	5781	Lewis, Ashley	10	Redlands	Redland E Vly	28:35.6	9:32
191	16917	Padilla, Jacqueline	11	Anaheim	Western	28:35.6	9:32
192	5776	Hernandez, Alice	10	Redlands	Redland E Vly	28:36.6	9:32
193	5250	Alrafe, Sarah	12	Los Angeles	Marshall	28:37.8	9:32
194	14328	Hosch, Kalia	10	San Diego	Clairemont-SD	28:38.6	9:33
195	7279	Luna, Andrea	10	Torrance	West Torrance	28:39.3	9:33
196	14326	Hartmann, Bella	9	San Diego	Clairemont-SD	28:40.2	9:33
197	4503	Hodgen, Gillian	11	Fullerton	Fullerton Un	28:41.9	9:34
198	14652	Lovatos, Tanya	10	Chino	Don Lugo	28:43.5	9:34
199	3637	Zeleya, Nevaeh	10	San Bernardino	Arroyo Valley	28:43.9	9:34
200	5151	Kersey, Michaela	10	North Las Vegas	Legacy NV	28:44.6	9:35
201	6352	Marquez, Lizeth	11	Santa Ana	Segerstrom	28:44.9	9:35
202	6005	Rios, Janelly	11	San Jacinto	San Jacinto	28:45.8	9:35
203	6544	Lin, Chloe	12	Torrance	SouthTorrance	28:46.8	9:35
204	15977	Su, Anna	9	Irvine	Portola	28:46.9	9:35
205	5779	Juarez, Laila	11	Redlands	Redland E Vly	28:47.8	9:36
206	5115	Lim, Amber	9	Westminster	La Quinta Wst	28:50.2	9:37
207	4281	Tovar, Gabriela	10	Orange	El Modena	28:55.9	9:38
208	6180	Rodd, Sadie	9	Santa Monica	Santa Monica	28:58.2	9:39
209	6011	Valdovinos, Valeria	12	San Jacinto	San Jacinto	28:59.3	9:40
210	15112	Hopkins, Rose	9	Anza	Hamilton (SS)	29:01.7	9:40
211	17068	Leckliter, Jenna	12	Buckeye	Youngker (AZ)	29:01.9	9:40
212	4880	Kim, Yoomin	9	Irvine	Irvine	29:02.0	9:41
213	5842	Billingsley, Vanessa	9	Sacramento	Rio Americano	29:03.4	9:41
214	17065	Jovel, Dorly	9	Buckeye	Youngker (AZ)	29:04.2	9:41
215	15963	Chen, Amy	9	Irvine	Portola	29:05.2	9:42
216	16386	Osorio, Kat	12	San Dimas	San Dimas	29:06.4	9:42
217	6896	Lopez, Olivia	9	Torrance	Torrance	29:07.9	9:42
218	4252	Alvarez, Isabella	10	Orange	El Modena	29:08.2	9:43
219	14653	Maya, Yulisa	12	Chino	Don Lugo	29:10.0	9:43
220	16159	De Santiago, Haila	12	Santa Ana	Saddleback	29:11.9	9:44
221	5681	Aranda, Amaris	12	Perris	Perris	29:12.3	9:44
222	5264	Mejia, Keila	11	Los Angeles	Marshall	29:13.3	9:44
223	14649	Fuerstenberg, Brooklyn	9	Chino	Don Lugo	29:14.4	9:45
224	14563	Espinoza, Nubia	10	Pomona	Diamond Ranch	29:17.8	9:46
225	17063	Cordova, Aryal	12	Buckeye	Youngker (AZ)	29:17.9	9:46
226	15058	Brickett, Jacquelyn	11	Apple Valley	Granite Hills	29:18.9	9:46
227	5071	O'balles, Alaura	12	La Mirada	La Mirada	29:20.2	9:47
228	6300	Santos, Kimberly	11	Garden Grove	Santiago-GG	29:21.2	9:47
229	13904	Derdomo, Nataly	11	Riverside	Arlington	29:21.2	9:47
230	14513	David, Starlee	12	Escondido	Del Lago Acad	29:21.4	9:47
231	1319	Emis, Audrey	9	Glendora	Glendora	29:21.6	9:47
232	15834	Adbelegawad, Samantha	9	Ontario	Ontario	29:22.2	9:47
233	6369	Villa, Ashley	9	Santa Ana	Segerstrom	29:23.8	9:48
234	6293	Nguyen, Jamie	9	Garden Grove	Santiago-GG	29:24.6	9:48
235	5650	Gomez, Maribel	12	Riverside	Patriot	29:26.4	9:49
236	5114	Le, Thao Mi	10	Westminster	La Quinta Wst	29:26.7	9:49
237	3740	Nicely, Julia	10	Ventura	Buena (Vent)	29:27.4	9:49
238	3719	Centeno, Marcella	12	Ventura	Buena (Vent)	29:29.3	9:50
239	4502	Fuentes, Sady	10	Fullerton	Fullerton Un	29:33.6	9:51
240	6175	Preza, Zoey	10	Santa Monica	Santa Monica	29:33.9	9:51
241	14717	Glaser, Stephanie	12	Sacramento	El Camino Sac	29:34.4	9:51
242	4721	Schoeffel, Kaitlyn	11	Henderson	GreenValleyNV	29:35.6	9:52
243	6002	Moreno, Ariana	11	San Jacinto	San Jacinto	29:36.8	9:52
244	16724	Aguilar, Sophia	11	Hemet	Tahquitz	29:39.4	9:53
245	15272	Velazquez, Stephinie	9	Fontana	Kaiser	29:40.2	9:53
246	4507	Sprague, Katie	9	Fullerton	Fullerton Un	29:40.5	9:53
247	5256	Cruz, Nancy	10	Los Angeles	Marshall	29:41.4	9:54
248	6283	Coronado, Lessly	9	Garden Grove	Santiago-GG	29:42.4	9:54
249	4891	Wu, Tiffany	9	Irvine	Irvine	29:43.4	9:54
250	6995	Alvarado, Dalila	9	Tustin	Tustin	29:43.8	9:54
251	6880	Garcia, Helen	9	Torrance	Torrance	29:45.3	9:55
252	15267	Ouanemalay, Elizabeth	12	Fontana	Kaiser	29:46.5	9:55
253	7000	Cano, Paola	9	Tustin	Tustin	29:47.0	9:56
254	6901	Nakanishi, Momo	10	Torrance	Torrance	29:48.4	9:56
255	3723	Ewing, Cayden	9	Ventura	Buena (Vent)	29:49.4	9:56
256	15672	Laygo, Sheinne	9	Irvine	Northwood	29:49.4	9:56
257	6504	Alicia, Wagoner	10	Bakersfield	S Bakersfield	29:49.6	9:56
258	16957	Tran, Lisa	9	Westminster	Westminster	29:50.6	9:57
259	3715	Alpuche, Lupita	9	Ventura	Buena (Vent)	29:51.4	9:57
260	16954	Rojas, Monique	9	Westminster	Westminster	29:54.2	9:58
261	6884	Hamachi, Lynsey	10	Torrance	Torrance	29:54.2	9:58
262	16915	Mejia, Regina	12	Anaheim	Western	29:55.4	9:58
263	4088	Oceguera, Andrea	11	Thermal	Desert Mirage	29:55.4	9:58
264	3745	Rodriguez, Celeste	12	Ventura	Buena (Vent)	29:56.2	9:59
265	6876	Diaz, Jessica	11	Torrance	Torrance	29:57.3	9:59
266	6868	Casaquit, Starlena	12	Torrance	Torrance	29:58.0	9:59
267	13907	Guerrero, Nayled	11	Riverside	Arlington	29:58.3	9:59
268	4533	Delgado, Isabel	9	Yuma	Gila Ridge AZ	29:58.6	9:59
269	15113	Ihde, Samantha	9	Anza	Hamilton (SS)	30:06.8	10:02
270	6432	Padilla, Samantha	12	Indio	Shadow Hills	30:10.7	10:03
271	15024	Bennett, Anna	9	Peoria	GlendalePrpAZ	30:11.9	10:04
272	15633	Logan, Lily	11	Calimesa	MesaGrndeAcad	30:14.3	10:05
273	16993	Quispe, Olivia	9	Pasadena	Westridge	30:18.0	10:06
274	16908	Alam, Reanna	10	Anaheim	Western	30:19.4	10:06
275	5249	Alrafe, Marium	10	Los Angeles	Marshall	30:21.6	10:07
276	6509	Sofia, Moreno	9	Bakersfield	S Bakersfield	30:23.0	10:08
277	5122	Tran, Cynthia	12	Westminster	La Quinta Wst	30:26.3	10:09
278	5248	Alrafe, Layla	9	Los Angeles	Marshall	30:26.4	10:09
279	5116	Mendoza, Alicia	10	Westminster	La Quinta Wst	30:28.3	10:09
280	16382	Haas, Syndey	10	San Dimas	San Dimas	30:29.4	10:10
281	14231	Escobar, Angelique	11	Buena Park	Buena Park	30:29.5	10:10
282	16480	Liu, Jackie	12	Chatsworth	Sierra Canyon	30:30.5	10:10
283	17007	Baer, Mirabelle	11	Los Angeles	Windward	30:34.6	10:11
284	6003	Moreno, Eileen	12	San Jacinto	San Jacinto	30:36.6	10:12
285	16914	Lim, Nyssa	10	Anaheim	Western	30:38.2	10:13
286	5699	Mojarro, Joselin	12	Perris	Perris	30:39.0	10:13
287	14570	Mcmath, Kaiya	10	Pomona	Diamond Ranch	30:39.2	10:13
288	16809	Marroquin, Noreli	10	Santa Ana	USC Coll Prep	30:39.4	10:13
289	5076	Shim, Sarah	9	La Mirada	La Mirada	30:40.6	10:13
290	16807	Flores, Haley	11	Santa Ana	USC Coll Prep	30:42.3	10:14
291	15115	Zeller, Hailey	9	Anza	Hamilton (SS)	30:43.5	10:14
292	4546	Price, Kara	11	Yuma	Gila Ridge AZ	30:45.4	10:15
293	4256	Cid, Neri	10	Orange	El Modena	30:46.0	10:15
294	5521	Bruno, Ashley	10	Orange	Orange	30:46.7	10:15
295	4874	Chow, Joanna	11	Irvine	Irvine	30:47.8	10:16
296	4165	Repp, Elizabeth	12	Las Vegas	Durango (NV)	30:49.9	10:16
297	14720	Miner, Krista	10	Sacramento	El Camino Sac	30:50.4	10:17
298	3611	Alvarez, Cindy	11	San Bernardino	Arroyo Valley	30:51.0	10:17
299	16768	Garner, Carveona	11	Twentynine Palms	TwentyninePal	30:51.9	10:17
300	5768	Cardenas, Bethany	11	Redlands	Redland E Vly	30:53.1	10:18
301	4156	Angulo, Melissa	9	Las Vegas	Durango (NV)	30:53.4	10:18
302	14861	Hnidy, Teagan	11	Las Vagas	Faith Luth	30:54.6	10:18
303	6545	Maille, Brooke	9	Torrance	SouthTorrance	30:54.6	10:18
304	4680	Johnson, Zelina	12	Grand Terrace	Grand Terrace	30:55.6	10:18
305	15665	Arca, Jordan	9	Irvine	Northwood	30:57.9	10:19
306	4881	Koyama, Miki	10	Irvine	Irvine	30:59.7	10:20
307	14233	Guzman, Cindy	10	Buena Park	Buena Park	31:00.8	10:20
308	5037	Torres, Grace	9	La Habra	La Habra	31:01.9	10:20
309	4681	Manscal, Priscilla	11	Grand Terrace	Grand Terrace	31:02.8	10:21
310	5034	Oliver, Gia	11	La Habra	La Habra	31:05.2	10:22
311	5858	Knepshield, Molly	9	Sacramento	Rio Americano	31:07.8	10:22
312	17096	Costa, Veronica	12	Yucca Valley	Yucca Valley	31:14.4	10:25
313	6298	Quinones, Evelyn	10	Garden Grove	Santiago-GG	31:20.2	10:27
314	4889	Shepard, Maylin	9	Irvine	Irvine	31:21.9	10:27
315	7278	Luna, Alexandra	10	Torrance	West Torrance	31:22.6	10:27
316	14562	Chiptres-jimene, Angelica10	Pomona	Diamond Ranch	31:23.9	10:28
317	17035	Mckee, Olivia	10	Riverside	WoodcrestChrs	31:27.9	10:29
318	6284	Cruz, Leslie	11	Garden Grove	Santiago-GG	31:31.9	10:30
319	15841	Gonzalez, Fernanda	11	Ontario	Ontario	31:33.0	10:31
320	14694	Vasquez, Paloma	9	West Covina	Edgewood	31:34.9	10:31
321	6299	Salmoran, Miriam	11	Garden Grove	Santiago-GG	31:36.6	10:32
322	16808	Flores, Nichole	11	Santa Ana	USC Coll Prep	31:38.2	10:33
323	17062	Carlos De Los R, Genesis9	Buckeye	Youngker (AZ)	31:41.0	10:34
324	5528	Islas, Tanya	9	Orange	Orange	31:42.2	10:34
325	4443	Daugherty, Desi	10	Escondido	Escondido	31:44.7	10:35
326	17279	Susa, Vivian	11	Colton	31:46.5	10:35
327	14521	Sanchez, Litzy	11	Escondido	Del Lago Acad	31:49.6	10:36
328	6340	Garcia, Andrea	11	Santa Ana	Segerstrom	31:51.2	10:37
329	4580	Gonzales, Melody	12	Glendale	Glendale	31:51.4	10:37
330	17070	Othon, Ariana	9	Buckeye	Youngker (AZ)	31:54.3	10:38
331	17064	Harris, Elaine	9	Buckeye	Youngker (AZ)	31:57.5	10:39
332	15258	Armenta, Viviana	9	Fontana	Kaiser	31:59.3	10:40
333	4458	Santos, Nadia	11	Escondido	Escondido	32:03.8	10:41
334	4581	Hernandez, Ashley	9	Glendale	Glendale	32:09.9	10:43
335	14567	Loza, Guadalupe	10	Pomona	Diamond Ranch	32:11.4	10:44
336	3625	Moreno, Claudia	12	San Bernardino	Arroyo Valley	32:11.9	10:44
337	6864	Arqvisula, Jasmine	10	Torrance	Torrance	32:13.3	10:44
338	6282	Blass, Yahaira	11	Garden Grove	Santiago-GG	32:16.7	10:45
339	6429	Hurley, Karen	11	Indio	Shadow Hills	32:19.6	10:46
340	16805	Arroyo, Giojana	11	Santa Ana	USC Coll Prep	32:22.6	10:47
341	6877	Eccles, Kailee	10	Torrance	Torrance	32:23.0	10:48
342	4678	Gonzales, Marissa	11	Grand Terrace	Grand Terrace	32:26.6	10:49
343	14511	Benavides, Kaylan	10	Escondido	Del Lago Acad	32:27.6	10:49
344	15109	Adams, Lydia	11	Anza	Hamilton (SS)	32:29.7	10:50
345	13906	Guerra, Jacqueline	11	Riverside	Arlington	32:36.6	10:52
346	6893	Lin, Phobe	10	Torrance	Torrance	32:38.0	10:53
347	16958	Visoso, Maria	9	Westminster	Westminster	32:38.4	10:53
348	4259	Escarcega, Aurora	12	Orange	El Modena	32:39.4	10:53
349	15598	Sadeghi, Mahsun	9	Malibu	Malibu	32:40.9	10:53
350	14655	Rivera, Celeste	10	Chino	Don Lugo	32:41.5	10:54
351	14286	Rodriguez, Viviana	9	Studio City	Campbell Hall	32:44.9	10:55
352	15978	Touch, Jennifer	9	Irvine	Portola	32:47.3	10:56
353	5702	Ramirez, Lizbeth	11	Perris	Perris	32:47.7	10:56
354	5522	Chavez-acosta, Ashly	9	Orange	Orange	32:53.8	10:58
355	4531	Barragan, Ruby	10	Yuma	Gila Ridge AZ	32:54.9	10:58
356	16913	Kumar, Niharika	11	Anaheim	Western	32:55.9	10:58
357	5109	Delgado, Breanna	10	Westminster	La Quinta Wst	32:57.5	10:59
358	16143	Lopez, Yeevyeni	12	Los Angeles	Sacred Heart	32:59.7	11:00
359	4271	Marquez, Paola	10	Orange	El Modena	33:01.4	11:00
360	6874	Cochran, Kassie	10	Torrance	Torrance	33:02.2	11:01
361	3632	Salas, Leslie	10	San Bernardino	Arroyo Valley	33:02.3	11:01
362	4439	Bolen, Ambar	11	Escondido	Escondido	33:03.4	11:01
363	4254	Barrera, Anayanci	10	Orange	El Modena	33:04.4	11:01
364	16131	Gallegos, Isabella	9	Los Angeles	Sacred Heart	33:05.8	11:02
365	17036	Montez, Jocelyn	11	Riverside	WoodcrestChrs	33:06.2	11:02
366	16911	Del Rodriguez-m, Jenny	9	Anaheim	Western	33:17.4	11:06
367	5270	Sanchez, Natalie	10	Los Angeles	Marshall	33:17.8	11:06
368	16775	Yazzie, Jayriah	10	Twentynine Palms	TwentyninePal	33:18.8	11:06
369	4169	Trejo, Mackenzie	11	Las Vegas	Durango (NV)	33:22.4	11:07
370	6898	Mandal, Apurva	10	Torrance	Torrance	33:22.6	11:07
371	5695	Martinez, Vanessa	10	Perris	Perris	33:34.0	11:11
372	6279	Aguilera, Alondra	9	Garden Grove	Santiago-GG	33:34.8	11:11
373	5852	Frazelle, Samantha	11	Sacramento	Rio Americano	33:37.8	11:12
374	5690	Gutierrez, Amada	11	Perris	Perris	33:42.7	11:14
375	4444	Daugherty, Kelly	11	Escondido	Escondido	33:45.9	11:15
376	15259	Cervantes, Melissa	10	Fontana	Kaiser	33:51.8	11:17